TimePST,TemperatureF,Dew PointF,Humidity,Sea Level PressureIn,VisibilityMPH,Wind Direction,Wind SpeedMPH,Gust SpeedMPH,PrecipitationIn,Events,Conditions,WindDirDegrees,DateUTC
12:00 AM,49.6,47.1,91,29.10,-9999.0,ESE,48.3,58.7,N/A,,Unknown,110,2012-11-30 08:00:00
1:00 AM,49.5,47.8,94,29.08,-9999.0,ESE,42.6,50.6,N/A,,Unknown,110,2012-11-30 09:00:00
2:00 AM,49.6,47.8,94,29.09,-9999.0,SE,28.8,43.7,N/A,,Unknown,130,2012-11-30 10:00:00
3:00 AM,49.8,47.7,92,29.06,-9999.0,ESE,39.1,48.3,N/A,,Unknown,120,2012-11-30 11:00:00
4:00 AM,50,48,89,29.03,,ESE,44.9,,,,,110,2012-11-30 12:00:00
4:00 AM,49.8,47.8,93,29.03,-9999.0,ESE,44.9,54.1,N/A,,Unknown,110,2012-11-30 12:00:00
7:00 AM,47.8,46.0,93,28.97,-9999.0,ESE,41.4,49.5,0.02,,Unknown,110,2012-11-30 15:00:00
8:00 AM,49.8,47.3,91,28.97,-9999.0,ESE,36.8,48.3,N/A,,Unknown,120,2012-11-30 16:00:00
9:00 AM,48.9,46.2,90,28.98,-9999.0,SE,35.7,50.6,N/A,,Unknown,130,2012-11-30 17:00:00
10:00 AM,49,47,89,28.96,,ESE,41.4,,,,,120,2012-11-30 18:00:00
10:00 AM,49.5,46.8,90,28.96,-9999.0,ESE,41.4,55.2,0.02,,Unknown,120,2012-11-30 18:00:00
11:00 AM,48.2,46.0,92,28.97,-9999.0,SE,29.9,41.4,0.05,,Unknown,130,2012-11-30 19:00:00
12:00 PM,49.3,45.1,86,28.98,-9999.0,SSE,48.3,56.4,0.06,,Unknown,150,2012-11-30 20:00:00
1:00 PM,49.6,46.0,87,29.01,-9999.0,SSE,47.2,54.1,N/A,,Unknown,150,2012-11-30 21:00:00
2:00 PM,49.3,45.1,86,29.06,-9999.0,SSE,42.6,50.6,N/A,,Unknown,160,2012-11-30 22:00:00
3:00 PM,48.0,45.7,92,29.08,-9999.0,SSE,38.0,46.0,0.03,,Unknown,150,2012-11-30 23:00:00
4:00 PM,49,46,85,29.11,,SSE,41.4,,,,,160,2012-12-01 00:00:00
4:00 PM,49.3,45.9,88,29.11,-9999.0,SSE,41.4,-,N/A,,Unknown,160,2012-12-01 00:00:00
5:00 PM,49.3,46.2,89,29.12,-9999.0,SE,32.2,41.4,N/A,,Unknown,140,2012-12-01 01:00:00
6:00 PM,48.7,45.0,87,29.12,-9999.0,SE,24.2,33.4,N/A,,Unknown,130,2012-12-01 02:00:00
7:00 PM,48.6,46.2,92,29.12,-9999.0,ESE,26.5,35.7,N/A,,Unknown,120,2012-12-01 03:00:00
8:00 PM,46.9,45.3,94,29.13,-9999.0,East,24.2,31.1,0.02,,Unknown,100,2012-12-01 04:00:00
9:00 PM,48.6,46.6,93,29.13,-9999.0,SE,26.5,34.5,0.02,,Unknown,140,2012-12-01 05:00:00
10:00 PM,48,46,92,29.13,,SE,29.9,,,,,140,2012-12-01 06:00:00
10:00 PM,47.8,46.4,95,29.13,-9999.0,SE,29.9,41.4,0.06,,Unknown,140,2012-12-01 06:00:00
11:00 PM,46.8,45.3,95,29.12,-9999.0,ESE,31.1,38.0,N/A,,Unknown,110,2012-12-01 07:00:00